Wetterdaten: Freitag, 16.08.2013
Datum Zeit Temperatur Luftfeuchte Luftdruck Regen Wind Richtung Richtung Taupunkt Windchill Windben
16.08.2013 00:00 10,4 C 85 % 1024,1 hPa 0,0 l/m 2,3 km/h (1 Bft) SO 135 8,0 C 10,3 C 2,6 km/h (1 Bft)
16.08.2013 00:05 10,4 C 85 % 1024,1 hPa 0,0 l/m 1,4 km/h (1 Bft) SO 135 8,0 C 10,3 C 0,0 km/h (0 Bft)
16.08.2013 00:10 10,3 C 85 % 1024,1 hPa 0,0 l/m 0,8 km/h (0 Bft) O-SO 112 7,9 C 10,2 C 1,8 km/h (1 Bft)
16.08.2013 00:15 10,3 C 85 % 1024,1 hPa 0,0 l/m 0,5 km/h (0 Bft) O-SO 112 7,9 C 10,0 C 0,0 km/h (0 Bft)
16.08.2013 00:20 10,2 C 85 % 1024,1 hPa 0,0 l/m 0,5 km/h (0 Bft) SO 135 7,8 C 9,9 C 1,9 km/h (1 Bft)
16.08.2013 00:25 10,3 C 86 % 1024,1 hPa 0,0 l/m 0,5 km/h (0 Bft) O-SO 112 8,1 C 9,9 C 1,6 km/h (1 Bft)
16.08.2013 00:30 10,1 C 85 % 1024,1 hPa 0,0 l/m 0,3 km/h (0 Bft) O-SO 112 7,7 C 9,8 C 0,0 km/h (0 Bft)
16.08.2013 00:35 10,0 C 85 % 1024,1 hPa 0,0 l/m 0,0 km/h (0 Bft) O-SO 112 7,6 C 9,7 C 0,0 km/h (0 Bft)
16.08.2013 00:40 9,8 C 86 % 1024,0 hPa 0,0 l/m 0,0 km/h (0 Bft) O-SO 112 7,6 C 9,4 C 0,0 km/h (0 Bft)
16.08.2013 00:45 9,6 C 86 % 1024,0 hPa 0,0 l/m 0,0 km/h (0 Bft) O 90 7,4 C 9,3 C 0,0 km/h (0 Bft)
16.08.2013 00:50 9,4 C 86 % 1024,0 hPa 0,0 l/m 0,0 km/h (0 Bft) O-SO 112 7,2 C 9,2 C 0,0 km/h (0 Bft)
16.08.2013 00:55 9,2 C 86 % 1024,0 hPa 0,0 l/m 0,0 km/h (0 Bft) O-NO 67 7,0 C 9,0 C 0,0 km/h (0 Bft)
16.08.2013 01:00 9,3 C 86 % 1023,8 hPa 0,0 l/m 0,0 km/h (0 Bft) N 360 7,1 C 8,9 C 0,0 km/h (0 Bft)
16.08.2013 01:05 9,1 C 86 % 1023,8 hPa 0,0 l/m 0,0 km/h (0 Bft) N 360 6,9 C 8,8 C 0,0 km/h (0 Bft)
16.08.2013 01:10 9,0 C 87 % 1023,8 hPa 0,0 l/m 0,0 km/h (0 Bft) N 360 7,0 C 8,8 C 0,0 km/h (0 Bft)
16.08.2013 01:15 9,0 C 87 % 1023,8 hPa 0,0 l/m 0,0 km/h (0 Bft) W-SW 247 7,0 C 8,8 C 0,0 km/h (0 Bft)
16.08.2013 01:20 9,0 C 87 % 1023,8 hPa 0,0 l/m 0,0 km/h (0 Bft) NO 45 7,0 C 8,9 C 0,0 km/h (0 Bft)
16.08.2013 01:25 9,0 C 87 % 1023,8 hPa 0,0 l/m 0,0 km/h (0 Bft) W-NW 292 7,0 C 8,8 C 0,0 km/h (0 Bft)
16.08.2013 01:30 8,9 C 88 % 1023,8 hPa 0,0 l/m 0,0 km/h (0 Bft) NO 45 7,0 C 8,7 C 0,0 km/h (0 Bft)
16.08.2013 01:35 9,0 C 88 % 1023,8 hPa 0,0 l/m 0,0 km/h (0 Bft) S 180 7,1 C 8,8 C 0,0 km/h (0 Bft)
16.08.2013 01:40 8,9 C 88 % 1023,6 hPa 0,0 l/m 0,0 km/h (0 Bft) W-SW 247 7,0 C 8,8 C 0,0 km/h (0 Bft)
16.08.2013 01:45 8,7 C 88 % 1023,6 hPa 0,0 l/m 0,0 km/h (0 Bft) W 270 6,8 C 8,5 C 0,0 km/h (0 Bft)
16.08.2013 01:50 8,6 C 88 % 1023,6 hPa 0,0 l/m 0,0 km/h (0 Bft) W-NW 292 6,7 C 8,5 C 0,0 km/h (0 Bft)
16.08.2013 01:55 8,6 C 88 % 1023,6 hPa 0,0 l/m 0,2 km/h (0 Bft) NO 45 6,7 C 8,4 C 1,6 km/h (1 Bft)
16.08.2013 02:00 8,7 C 89 % 1023,5 hPa 0,0 l/m 0,2 km/h (0 Bft) O-NO 67 7,0 C 8,4 C 0,0 km/h (0 Bft)
16.08.2013 02:05 8,6 C 89 % 1023,5 hPa 0,0 l/m 0,2 km/h (0 Bft) O-NO 67 6,9 C 8,2 C 0,0 km/h (0 Bft)
16.08.2013 02:10 8,5 C 89 % 1023,5 hPa 0,0 l/m 0,0 km/h (0 Bft) O-NO 67 6,8 C 8,2 C 0,0 km/h (0 Bft)
16.08.2013 02:15 8,5 C 89 % 1023,5 hPa 0,0 l/m 0,0 km/h (0 Bft) O-NO 67 6,8 C 8,1 C 0,0 km/h (0 Bft)
16.08.2013 02:20 8,6 C 89 % 1023,3 hPa 0,0 l/m 0,0 km/h (0 Bft) N-NO 22 6,9 C 8,2 C 0,0 km/h (0 Bft)
16.08.2013 02:25 8,3 C 89 % 1023,3 hPa 0,0 l/m 0,0 km/h (0 Bft) N-NO 22 6,6 C 8,2 C 0,0 km/h (0 Bft)
16.08.2013 02:30 8,3 C 89 % 1023,3 hPa 0,0 l/m 0,0 km/h (0 Bft) N 360 6,6 C 8,1 C 0,0 km/h (0 Bft)
16.08.2013 02:35 8,5 C 89 % 1023,3 hPa 0,0 l/m 0,0 km/h (0 Bft) NO 45 6,8 C 7,9 C 0,0 km/h (0 Bft)
16.08.2013 02:40 8,8 C 89 % 1023,1 hPa 0,0 l/m 0,0 km/h (0 Bft) O 90 7,1 C 8,0 C 0,0 km/h (0 Bft)
16.08.2013 02:45 8,6 C 90 % 1023,1 hPa 0,0 l/m 0,0 km/h (0 Bft) N-NW 337 7,1 C 8,2 C 0,0 km/h (0 Bft)
16.08.2013 02:50 8,4 C 89 % 1023,1 hPa 0,0 l/m 0,0 km/h (0 Bft) NO 45 6,7 C 8,3 C 0,0 km/h (0 Bft)
16.08.2013 02:55 8,8 C 90 % 1023,1 hPa 0,0 l/m 0,0 km/h (0 Bft) O-NO 67 7,3 C 8,3 C 0,0 km/h (0 Bft)
16.08.2013 03:00 8,7 C 90 % 1023,2 hPa 0,0 l/m 0,0 km/h (0 Bft) O 90 7,2 C 8,2 C 0,0 km/h (0 Bft)
16.08.2013 03:05 8,7 C 90 % 1023,2 hPa 0,0 l/m 0,0 km/h (0 Bft) O 90 7,2 C 8,2 C 0,0 km/h (0 Bft)
16.08.2013 03:10 8,4 C 90 % 1023,2 hPa 0,0 l/m 0,0 km/h (0 Bft) NO 45 6,9 C 8,2 C 0,0 km/h (0 Bft)
16.08.2013 03:15 8,4 C 89 % 1023,2 hPa 0,0 l/m 0,0 km/h (0 Bft) O-NO 67 6,7 C 8,1 C 0,0 km/h (0 Bft)
16.08.2013 03:20 8,4 C 90 % 1023,3 hPa 0,0 l/m 0,0 km/h (0 Bft) O 90 6,9 C 8,1 C 0,0 km/h (0 Bft)
16.08.2013 03:25 8,2 C 89 % 1023,3 hPa 0,0 l/m 0,0 km/h (0 Bft) O 90 6,5 C 8,0 C 0,0 km/h (0 Bft)
16.08.2013 03:30 8,2 C 90 % 1023,3 hPa 0,0 l/m 0,0 km/h (0 Bft) W-NW 292 6,7 C 8,0 C 0,0 km/h (0 Bft)
16.08.2013 03:35 8,2 C 90 % 1023,3 hPa 0,0 l/m 0,0 km/h (0 Bft) N 360 6,7 C 7,9 C 0,0 km/h (0 Bft)
16.08.2013 03:40 8,4 C 90 % 1023,1 hPa 0,0 l/m 0,0 km/h (0 Bft) N-NO 22 6,9 C 7,9 C 0,0 km/h (0 Bft)
16.08.2013 03:45 8,3 C 90 % 1023,1 hPa 0,0 l/m 0,0 km/h (0 Bft) NO 45 6,8 C 8,1 C 0,0 km/h (0 Bft)
16.08.2013 03:50 8,3 C 90 % 1023,1 hPa 0,0 l/m 0,0 km/h (0 Bft) N-NO 22 6,8 C 8,1 C 0,0 km/h (0 Bft)
16.08.2013 03:55 8,4 C 90 % 1023,1 hPa 0,0 l/m 0,0 km/h (0 Bft) N-NO 22 6,9 C 8,1 C 0,0 km/h (0 Bft)
16.08.2013 04:00 8,3 C 90 % 1023,1 hPa 0,0 l/m 0,0 km/h (0 Bft) N 360 6,8 C 8,1 C 0,0 km/h (0 Bft)
16.08.2013 04:05 8,4 C 90 % 1023,1 hPa 0,0 l/m 0,0 km/h (0 Bft) NO 45 6,9 C 8,0 C 0,0 km/h (0 Bft)
16.08.2013 04:10 8,5 C 90 % 1023,1 hPa 0,0 l/m 0,0 km/h (0 Bft) O-NO 67 7,0 C 8,1 C 0,0 km/h (0 Bft)
16.08.2013 04:15 8,1 C 90 % 1023,1 hPa 0,0 l/m 0,0 km/h (0 Bft) N-NW 337 6,6 C 8,1 C 0,0 km/h (0 Bft)
16.08.2013 04:20 8,1 C 90 % 1023,1 hPa 0,0 l/m 0,0 km/h (0 Bft) O-NO 67 6,6 C 8,0 C 0,0 km/h (0 Bft)
16.08.2013 04:25 8,5 C 90 % 1023,1 hPa 0,0 l/m 0,5 km/h (0 Bft) O 90 7,0 C 8,2 C 0,0 km/h (0 Bft)
16.08.2013 04:30 8,3 C 90 % 1023,1 hPa 0,0 l/m 0,5 km/h (0 Bft) O 90 6,8 C 8,1 C 0,0 km/h (0 Bft)
16.08.2013 04:35 8,0 C 90 % 1023,1 hPa 0,0 l/m 0,0 km/h (0 Bft) O-NO 67 6,5 C 7,9 C 0,0 km/h (0 Bft)
16.08.2013 04:40 8,1 C 90 % 1023,0 hPa 0,0 l/m 0,0 km/h (0 Bft) O 90 6,6 C 7,9 C 0,0 km/h (0 Bft)
16.08.2013 04:45 7,9 C 90 % 1023,0 hPa 0,0 l/m 0,0 km/h (0 Bft) W 270 6,4 C 7,9 C 0,0 km/h (0 Bft)
16.08.2013 04:50 7,7 C 90 % 1023,0 hPa 0,0 l/m 0,0 km/h (0 Bft) W 270 6,2 C 7,8 C 0,0 km/h (0 Bft)
16.08.2013 04:55 7,7 C 90 % 1023,0 hPa 0,0 l/m 0,0 km/h (0 Bft) O-SO 112 6,2 C 7,6 C 0,0 km/h (0 Bft)
16.08.2013 05:00 7,6 C 90 % 1022,9 hPa 0,0 l/m 0,0 km/h (0 Bft) S 180 6,1 C 7,5 C 0,0 km/h (0 Bft)
16.08.2013 05:05 7,7 C 90 % 1022,9 hPa 0,0 l/m 0,0 km/h (0 Bft) W 270 6,2 C 7,3 C 0,0 km/h (0 Bft)
16.08.2013 05:10 7,7 C 90 % 1022,9 hPa 0,0 l/m 0,0 km/h (0 Bft) W 270 6,2 C 7,4 C 0,0 km/h (0 Bft)
16.08.2013 05:15 7,6 C 90 % 1022,9 hPa 0,0 l/m 0,0 km/h (0 Bft) W 270 6,1 C 7,2 C 0,0 km/h (0 Bft)
16.08.2013 05:20 7,6 C 90 % 1022,9 hPa 0,0 l/m 0,0 km/h (0 Bft) W 270 6,1 C 7,2 C 0,0 km/h (0 Bft)
16.08.2013 05:25 7,3 C 90 % 1022,9 hPa 0,0 l/m 0,0 km/h (0 Bft) W 270 5,8 C 7,2 C 0,0 km/h (0 Bft)
16.08.2013 05:30 7,6 C 90 % 1022,9 hPa 0,0 l/m 0,0 km/h (0 Bft) O-SO 112 6,1 C 7,1 C 0,0 km/h (0 Bft)
16.08.2013 05:35 7,4 C 90 % 1022,9 hPa 0,0 l/m 0,0 km/h (0 Bft) O-SO 112 5,9 C 7,1 C 0,0 km/h (0 Bft)
16.08.2013 05:40 7,3 C 90 % 1022,9 hPa 0,0 l/m 0,0 km/h (0 Bft) O-SO 112 5,8 C 7,1 C 0,0 km/h (0 Bft)
16.08.2013 05:45 7,3 C 90 % 1022,9 hPa 0,0 l/m 0,0 km/h (0 Bft) O-SO 112 5,8 C 7,0 C 0,0 km/h (0 Bft)
16.08.2013 05:50 7,2 C 90 % 1022,9 hPa 0,0 l/m 0,0 km/h (0 Bft) O-SO 112 5,7 C 7,0 C 0,0 km/h (0 Bft)
16.08.2013 05:55 7,4 C 90 % 1022,9 hPa 0,0 l/m 0,0 km/h (0 Bft) O-NO 67 5,9 C 7,0 C 0,0 km/h (0 Bft)
16.08.2013 06:00 7,5 C 90 % 1022,9 hPa 0,0 l/m 0,0 km/h (0 Bft) O-NO 67 6,0 C 7,0 C 0,0 km/h (0 Bft)
16.08.2013 06:05 7,4 C 90 % 1022,9 hPa 0,0 l/m 0,0 km/h (0 Bft) O-NO 67 5,9 C 7,1 C 0,0 km/h (0 Bft)
16.08.2013 06:10 7,3 C 90 % 1022,9 hPa 0,0 l/m 0,0 km/h (0 Bft) O-NO 67 5,8 C 7,0 C 0,0 km/h (0 Bft)
16.08.2013 06:15 7,2 C 90 % 1022,9 hPa 0,0 l/m 0,0 km/h (0 Bft) O-NO 67 5,7 C 7,0 C 0,0 km/h (0 Bft)
16.08.2013 06:20 7,2 C 90 % 1023,0 hPa 0,0 l/m 0,0 km/h (0 Bft) O-NO 67 5,7 C 7,0 C 0,0 km/h (0 Bft)
16.08.2013 06:25 7,5 C 91 % 1023,0 hPa 0,0 l/m 0,0 km/h (0 Bft) N-NW 337 6,1 C 7,0 C 0,0 km/h (0 Bft)
16.08.2013 06:30 7,4 C 91 % 1023,0 hPa 0,0 l/m 0,0 km/h (0 Bft) N-NW 337 6,0 C 7,2 C 0,0 km/h (0 Bft)
16.08.2013 06:35 7,5 C 91 % 1023,0 hPa 0,0 l/m 0,0 km/h (0 Bft) N-NO 22 6,1 C 7,3 C 0,0 km/h (0 Bft)
16.08.2013 06:40 7,7 C 91 % 1023,1 hPa 0,0 l/m 0,0 km/h (0 Bft) W 270 6,3 C 7,5 C 0,0 km/h (0 Bft)
16.08.2013 06:45 7,6 C 91 % 1023,1 hPa 0,0 l/m 0,0 km/h (0 Bft) N 360 6,2 C 7,9 C 0,0 km/h (0 Bft)
16.08.2013 06:50 7,8 C 91 % 1023,1 hPa 0,0 l/m 0,0 km/h (0 Bft) N 360 6,4 C 8,8 C 0,0 km/h (0 Bft)
16.08.2013 06:55 7,8 C 91 % 1023,1 hPa 0,0 l/m 0,0 km/h (0 Bft) N-NW 337 6,4 C 9,8 C 0,0 km/h (0 Bft)
16.08.2013 07:00 7,9 C 91 % 1023,1 hPa 0,0 l/m 0,0 km/h (0 Bft) N-NW 337 6,5 C 10,3 C 0,0 km/h (0 Bft)
16.08.2013 07:05 8,0 C 91 % 1023,1 hPa 0,0 l/m 0,0 km/h (0 Bft) N 360 6,6 C 10,9 C 0,0 km/h (0 Bft)
16.08.2013 07:10 8,3 C 91 % 1023,1 hPa 0,0 l/m 0,0 km/h (0 Bft) N 360 6,9 C 11,4 C 0,0 km/h (0 Bft)
16.08.2013 07:15 8,4 C 91 % 1023,1 hPa 0,0 l/m 0,0 km/h (0 Bft) N-NW 337 7,0 C 12,2 C 0,0 km/h (0 Bft)
16.08.2013 07:20 8,5 C 91 % 1023,1 hPa 0,0 l/m 0,0 km/h (0 Bft) N-NO 22 7,1 C 12,6 C 0,0 km/h (0 Bft)
16.08.2013 07:25 8,8 C 91 % 1023,1 hPa 0,0 l/m 0,0 km/h (0 Bft) NW 315 7,4 C 13,5 C 0,0 km/h (0 Bft)
16.08.2013 07:30 9,1 C 91 % 1023,1 hPa 0,0 l/m 0,0 km/h (0 Bft) N-NO 22 7,7 C 13,9 C 0,0 km/h (0 Bft)
16.08.2013 07:35 9,7 C 91 % 1023,1 hPa 0,0 l/m 0,0 km/h (0 Bft) N-NO 22 8,3 C 15,1 C 0,0 km/h (0 Bft)
16.08.2013 07:40 10,2 C 91 % 1023,1 hPa 0,0 l/m 0,0 km/h (0 Bft) W-NW 292 8,8 C 15,8 C 0,0 km/h (0 Bft)
16.08.2013 07:45 12,6 C 91 % 1023,1 hPa 0,0 l/m 0,0 km/h (0 Bft) N-NO 22 11,2 C 16,3 C 0,0 km/h (0 Bft)
16.08.2013 07:50 14,1 C 88 % 1023,1 hPa 0,0 l/m 0,0 km/h (0 Bft) N-NO 22 12,1 C 16,8 C 0,0 km/h (0 Bft)
16.08.2013 07:55 14,8 C 86 % 1023,1 hPa 0,0 l/m 0,0 km/h (0 Bft) N-NO 22 12,5 C 17,6 C 0,0 km/h (0 Bft)
16.08.2013 08:00 15,6 C 86 % 1023,2 hPa 0,0 l/m 0,0 km/h (0 Bft) N-NO 22 13,3 C 18,1 C 0,0 km/h (0 Bft)
16.08.2013 08:05 17,5 C 83 % 1023,2 hPa 0,0 l/m 0,0 km/h (0 Bft) N-NO 22 14,6 C 18,8 C 0,0 km/h (0 Bft)
16.08.2013 08:10 18,9 C 82 % 1023,2 hPa 0,0 l/m 0,0 km/h (0 Bft) N-NO 22 15,8 C 19,2 C 0,0 km/h (0 Bft)
16.08.2013 08:15 19,2 C 78 % 1023,2 hPa 0,0 l/m 0,0 km/h (0 Bft) N-NW 337 15,3 C 20,2 C 0,0 km/h (0 Bft)
16.08.2013 08:20 19,5 C 75 % 1023,2 hPa 0,0 l/m 0,0 km/h (0 Bft) N-NO 22 14,9 C 20,6 C 0,0 km/h (0 Bft)
16.08.2013 08:25 20,1 C 72 % 1023,2 hPa 0,0 l/m 0,0 km/h (0 Bft) NO 45 14,9 C 21,2 C 0,0 km/h (0 Bft)
16.08.2013 08:30 19,9 C 69 % 1023,2 hPa 0,0 l/m 0,0 km/h (0 Bft) O 90 14,0 C 21,2 C 0,0 km/h (0 Bft)
16.08.2013 08:35 19,9 C 63 % 1023,2 hPa 0,0 l/m 0,0 km/h (0 Bft) NO 45 12,6 C 22,0 C 0,0 km/h (0 Bft)
16.08.2013 08:40 19,7 C 63 % 1023,2 hPa 0,0 l/m 0,0 km/h (0 Bft) N-NO 22 12,5 C 22,2 C 0,0 km/h (0 Bft)
16.08.2013 08:45 20,6 C 59 % 1023,2 hPa 0,0 l/m 0,0 km/h (0 Bft) N-NO 22 12,3 C 22,3 C 0,0 km/h (0 Bft)
16.08.2013 08:50 21,1 C 62 % 1023,2 hPa 0,0 l/m 0,0 km/h (0 Bft) O-NO 67 13,5 C 22,8 C 0,0 km/h (0 Bft)
16.08.2013 08:55 21,3 C 59 % 1023,2 hPa 0,0 l/m 0,0 km/h (0 Bft) W-SW 247 13,0 C 23,5 C 0,0 km/h (0 Bft)
16.08.2013 09:00 22,4 C 59 % 1023,2 hPa 0,0 l/m 0,0 km/h (0 Bft) S 180 14,0 C 23,6 C 1,8 km/h (1 Bft)
16.08.2013 09:05 22,4 C 57 % 1023,2 hPa 0,0 l/m 0,0 km/h (0 Bft) S-SW 202 13,5 C 23,8 C 0,0 km/h (0 Bft)
16.08.2013 09:10 22,0 C 53 % 1023,2 hPa 0,0 l/m 0,0 km/h (0 Bft) N 360 12,0 C 24,3 C 1,6 km/h (1 Bft)
16.08.2013 09:15 22,4 C 55 % 1023,2 hPa 0,0 l/m 0,3 km/h (0 Bft) O 90 12,9 C 24,3 C 0,0 km/h (0 Bft)
16.08.2013 09:20 22,4 C 54 % 1023,3 hPa 0,0 l/m 0,6 km/h (0 Bft) N 360 12,6 C 24,3 C 0,0 km/h (0 Bft)
16.08.2013 09:25 22,1 C 54 % 1023,3 hPa 0,0 l/m 0,5 km/h (0 Bft) N 360 12,3 C 24,7 C 0,0 km/h (0 Bft)
16.08.2013 09:30 23,1 C 53 % 1023,3 hPa 0,0 l/m 0,2 km/h (0 Bft) O-NO 67 13,0 C 24,7 C 1,8 km/h (1 Bft)
16.08.2013 09:35 22,9 C 53 % 1023,3 hPa 0,0 l/m 0,5 km/h (0 Bft) NO 45 12,8 C 25,2 C 2,7 km/h (1 Bft)
16.08.2013 09:40 22,7 C 49 % 1023,2 hPa 0,0 l/m 0,8 km/h (0 Bft) W-NW 292 11,4 C 25,2 C 1,8 km/h (1 Bft)
16.08.2013 09:45 23,5 C 48 % 1023,2 hPa 0,0 l/m 1,6 km/h (1 Bft) W-NW 292 11,8 C 25,0 C 4,3 km/h (1 Bft)
16.08.2013 09:50 23,7 C 47 % 1023,2 hPa 0,0 l/m 1,6 km/h (1 Bft) N-NW 337 11,7 C 24,8 C 0,0 km/h (0 Bft)
16.08.2013 09:55 24,1 C 47 % 1023,2 hPa 0,0 l/m 1,9 km/h (1 Bft) W 270 12,1 C 24,8 C 0,0 km/h (0 Bft)
16.08.2013 10:00 24,6 C 47 % 1023,2 hPa 0,0 l/m 1,8 km/h (1 Bft) W-NW 292 12,5 C 25,0 C 2,1 km/h (1 Bft)
16.08.2013 10:05 24,4 C 47 % 1023,2 hPa 0,0 l/m 1,4 km/h (1 Bft) W 270 12,3 C 25,3 C 0,0 km/h (0 Bft)
16.08.2013 10:10 24,2 C 45 % 1023,2 hPa 0,0 l/m 1,3 km/h (1 Bft) N-NO 22 11,5 C 25,6 C 0,0 km/h (0 Bft)
16.08.2013 10:15 24,3 C 47 % 1023,2 hPa 0,0 l/m 0,5 km/h (0 Bft) NO 45 12,3 C 26,5 C 0,0 km/h (0 Bft)
16.08.2013 10:20 24,7 C 47 % 1023,3 hPa 0,0 l/m 0,6 km/h (0 Bft) W 270 12,6 C 27,1 C 4,8 km/h (1 Bft)
16.08.2013 10:25 24,0 C 44 % 1023,3 hPa 0,0 l/m 0,8 km/h (0 Bft) W 270 11,0 C 27,1 C 2,1 km/h (1 Bft)
16.08.2013 10:30 25,0 C 44 % 1023,3 hPa 0,0 l/m 1,9 km/h (1 Bft) W-NW 292 11,9 C 26,8 C 7,1 km/h (2 Bft)
16.08.2013 10:35 24,2 C 44 % 1023,3 hPa 0,0 l/m 3,1 km/h (1 Bft) W 270 11,2 C 25,8 C 2,7 km/h (1 Bft)
16.08.2013 10:40 24,1 C 43 % 1023,3 hPa 0,0 l/m 3,5 km/h (1 Bft) W-NW 292 10,7 C 25,8 C 4,2 km/h (1 Bft)
16.08.2013 10:45 24,5 C 43 % 1023,3 hPa 0,0 l/m 3,2 km/h (1 Bft) W-NW 292 11,1 C 25,6 C 3,9 km/h (1 Bft)
16.08.2013 10:50 24,6 C 43 % 1023,3 hPa 0,0 l/m 3,5 km/h (1 Bft) W-NW 292 11,2 C 25,4 C 4,5 km/h (1 Bft)
16.08.2013 10:55 25,3 C 43 % 1023,3 hPa 0,0 l/m 2,9 km/h (1 Bft) W-NW 292 11,8 C 25,6 C 5,8 km/h (2 Bft)
16.08.2013 11:00 24,6 C 40 % 1023,6 hPa 0,0 l/m 2,4 km/h (1 Bft) N 360 10,1 C 26,0 C 8,0 km/h (2 Bft)
16.08.2013 11:05 25,2 C 43 % 1023,6 hPa 0,0 l/m 2,7 km/h (1 Bft) N-NW 337 11,7 C 26,1 C 4,3 km/h (1 Bft)
16.08.2013 11:10 24,0 C 42 % 1023,6 hPa 0,0 l/m 2,4 km/h (1 Bft) W-NW 292 10,3 C 26,5 C 3,9 km/h (1 Bft)
16.08.2013 11:15 25,0 C 43 % 1023,6 hPa 0,0 l/m 1,9 km/h (1 Bft) W-NW 292 11,5 C 26,5 C 0,0 km/h (0 Bft)
16.08.2013 11:20 25,0 C 43 % 1023,8 hPa 0,0 l/m 2,3 km/h (1 Bft) O-SO 112 11,5 C 26,5 C 0,0 km/h (0 Bft)
16.08.2013 11:25 25,2 C 41 % 1023,8 hPa 0,0 l/m 2,9 km/h (1 Bft) N-NW 337 11,0 C 25,8 C 9,5 km/h (2 Bft)
16.08.2013 11:30 25,3 C 42 % 1023,8 hPa 0,0 l/m 3,2 km/h (1 Bft) NW 315 11,5 C 25,0 C 4,7 km/h (1 Bft)
16.08.2013 11:35 25,5 C 39 % 1023,8 hPa 0,0 l/m 2,3 km/h (1 Bft) NW 315 10,5 C 24,5 C 2,9 km/h (1 Bft)
16.08.2013 11:40 26,0 C 40 % 1023,8 hPa 0,0 l/m 2,3 km/h (1 Bft) W 270 11,3 C 24,2 C 2,7 km/h (1 Bft)
16.08.2013 11:45 25,8 C 39 % 1023,8 hPa 0,0 l/m 2,9 km/h (1 Bft) W-NW 292 10,8 C 23,9 C 2,7 km/h (1 Bft)
16.08.2013 11:50 26,7 C 39 % 1023,8 hPa 0,0 l/m 2,6 km/h (1 Bft) W 270 11,6 C 24,2 C 3,5 km/h (1 Bft)
16.08.2013 11:55 26,1 C 39 % 1023,8 hPa 0,0 l/m 3,1 km/h (1 Bft) W 270 11,0 C 25,0 C 4,0 km/h (1 Bft)
16.08.2013 12:00 26,0 C 39 % 1023,8 hPa 0,0 l/m 3,1 km/h (1 Bft) W 270 11,0 C 25,5 C 5,0 km/h (1 Bft)
16.08.2013 12:05 25,5 C 40 % 1023,8 hPa 0,0 l/m 3,1 km/h (1 Bft) N-NO 22 10,9 C 26,0 C 1,9 km/h (1 Bft)
16.08.2013 12:10 25,7 C 39 % 1023,8 hPa 0,0 l/m 3,2 km/h (1 Bft) O-NO 67 10,7 C 26,3 C 2,7 km/h (1 Bft)
16.08.2013 12:15 25,8 C 41 % 1023,8 hPa 0,0 l/m 2,6 km/h (1 Bft) O 90 11,5 C 26,7 C 1,9 km/h (1 Bft)
16.08.2013 12:20 26,8 C 40 % 1023,8 hPa 0,0 l/m 2,3 km/h (1 Bft) S-SO 157 12,1 C 27,2 C 0,0 km/h (0 Bft)
16.08.2013 12:25 25,7 C 42 % 1023,8 hPa 0,0 l/m 2,1 km/h (1 Bft) N-NW 337 11,8 C 27,9 C 4,2 km/h (1 Bft)
16.08.2013 12:30 25,9 C 41 % 1023,8 hPa 0,0 l/m 3,2 km/h (1 Bft) W 270 11,6 C 27,5 C 2,4 km/h (1 Bft)
16.08.2013 12:35 26,8 C 41 % 1023,8 hPa 0,0 l/m 2,7 km/h (1 Bft) O-NO 67 12,4 C 27,9 C 2,1 km/h (1 Bft)
16.08.2013 12:40 26,3 C 42 % 1023,6 hPa 0,0 l/m 1,8 km/h (1 Bft) NW 315 12,3 C 28,3 C 3,7 km/h (1 Bft)
16.08.2013 12:45 25,5 C 42 % 1023,6 hPa 0,0 l/m 2,1 km/h (1 Bft) O-SO 112 11,6 C 28,3 C 2,1 km/h (1 Bft)
16.08.2013 12:50 26,0 C 41 % 1023,6 hPa 0,0 l/m 2,6 km/h (1 Bft) N-NW 337 11,7 C 28,3 C 5,1 km/h (1 Bft)
16.08.2013 12:55 25,8 C 43 % 1023,6 hPa 0,0 l/m 2,7 km/h (1 Bft) NO 45 12,3 C 28,1 C 3,9 km/h (1 Bft)
16.08.2013 13:00 25,8 C 43 % 1023,4 hPa 0,0 l/m 2,6 km/h (1 Bft) N-NW 337 12,3 C 28,1 C 1,8 km/h (1 Bft)
16.08.2013 13:05 25,7 C 45 % 1023,4 hPa 0,0 l/m 3,5 km/h (1 Bft) N-NW 337 12,9 C 28,0 C 4,8 km/h (1 Bft)
16.08.2013 13:10 24,8 C 42 % 1023,4 hPa 0,0 l/m 3,5 km/h (1 Bft) N 360 11,0 C 27,7 C 2,4 km/h (1 Bft)
16.08.2013 13:15 26,1 C 44 % 1023,4 hPa 0,0 l/m 2,9 km/h (1 Bft) W 270 12,9 C 28,1 C 5,3 km/h (1 Bft)
16.08.2013 13:20 26,0 C 43 % 1023,5 hPa 0,0 l/m 3,2 km/h (1 Bft) W-NW 292 12,4 C 28,2 C 7,6 km/h (2 Bft)
16.08.2013 13:25 25,5 C 43 % 1023,5 hPa 0,0 l/m 3,7 km/h (1 Bft) W-NW 292 12,0 C 27,9 C 3,2 km/h (1 Bft)
16.08.2013 13:30 25,9 C 46 % 1023,5 hPa 0,0 l/m 2,4 km/h (1 Bft) S 180 13,4 C 28,5 C 0,0 km/h (0 Bft)
16.08.2013 13:35 26,6 C 43 % 1023,5 hPa 0,0 l/m 1,9 km/h (1 Bft) S 180 13,0 C 29,3 C 3,4 km/h (1 Bft)
16.08.2013 13:40 26,4 C 43 % 1023,6 hPa 0,0 l/m 3,1 km/h (1 Bft) W-SW 247 12,8 C 29,0 C 4,3 km/h (1 Bft)
16.08.2013 13:45 26,5 C 43 % 1023,6 hPa 0,0 l/m 3,7 km/h (1 Bft) SW 225 12,9 C 28,8 C 5,6 km/h (1 Bft)
16.08.2013 13:50 26,5 C 40 % 1023,6 hPa 0,0 l/m 3,7 km/h (1 Bft) W-NW 292 11,8 C 28,7 C 6,0 km/h (2 Bft)
16.08.2013 13:55 26,1 C 40 % 1023,6 hPa 0,0 l/m 4,8 km/h (1 Bft) W-SW 247 11,4 C 28,1 C 5,3 km/h (1 Bft)
16.08.2013 14:00 25,7 C 43 % 1023,4 hPa 0,0 l/m 4,3 km/h (1 Bft) O-NO 67 12,2 C 27,5 C 2,7 km/h (1 Bft)
16.08.2013 14:05 25,1 C 43 % 1023,4 hPa 0,0 l/m 4,3 km/h (1 Bft) O-NO 67 11,6 C 27,7 C 10,6 km/h (2 Bft)
16.08.2013 14:10 25,7 C 43 % 1023,4 hPa 0,0 l/m 4,0 km/h (1 Bft) NW 315 12,2 C 27,8 C 7,1 km/h (2 Bft)
16.08.2013 14:16 25,9 C 43 % 1023,4 hPa 0,0 l/m 4,2 km/h (1 Bft) SW 225 12,3 C 27,5 C 4,2 km/h (1 Bft)
16.08.2013 14:20 25,8 C 42 % 1023,6 hPa 0,0 l/m 5,5 km/h (1 Bft) N-NW 337 11,9 C 27,2 C 8,9 km/h (2 Bft)
16.08.2013 14:25 26,2 C 40 % 1023,6 hPa 0,0 l/m 3,9 km/h (1 Bft) N 360 11,5 C 27,5 C 6,0 km/h (2 Bft)
16.08.2013 14:30 25,7 C 39 % 1023,6 hPa 0,0 l/m 3,5 km/h (1 Bft) S 180 10,7 C 27,7 C 3,5 km/h (1 Bft)
16.08.2013 14:35 25,2 C 41 % 1023,6 hPa 0,0 l/m 4,2 km/h (1 Bft) O-NO 67 11,0 C 28,2 C 4,2 km/h (1 Bft)
16.08.2013 14:40 26,0 C 41 % 1023,2 hPa 0,0 l/m 3,1 km/h (1 Bft) W 270 11,7 C 28,0 C 2,7 km/h (1 Bft)
16.08.2013 14:45 26,1 C 40 % 1023,2 hPa 0,0 l/m 2,3 km/h (1 Bft) N-NW 337 11,4 C 28,9 C 0,0 km/h (0 Bft)
16.08.2013 14:50 26,6 C 39 % 1023,2 hPa 0,0 l/m 3,4 km/h (1 Bft) W-NW 292 11,5 C 29,2 C 7,9 km/h (2 Bft)
16.08.2013 14:55 26,1 C 39 % 1023,2 hPa 0,0 l/m 4,3 km/h (1 Bft) N-NW 337 11,0 C 28,6 C 1,8 km/h (1 Bft)
16.08.2013 15:00 26,3 C 40 % 1023,2 hPa 0,0 l/m 3,7 km/h (1 Bft) N-NO 22 11,6 C 28,9 C 4,0 km/h (1 Bft)
16.08.2013 15:05 26,2 C 39 % 1023,2 hPa 0,0 l/m 2,7 km/h (1 Bft) W 270 11,1 C 29,1 C 3,5 km/h (1 Bft)
16.08.2013 15:10 26,2 C 39 % 1023,2 hPa 0,0 l/m 2,7 km/h (1 Bft) W 270 11,1 C 29,1 C 3,5 km/h (1 Bft)
16.08.2013 15:15 26,7 C 41 % 1023,2 hPa 0,0 l/m 3,2 km/h (1 Bft) N-NO 22 12,3 C 29,3 C 2,4 km/h (1 Bft)
16.08.2013 15:20 26,2 C 38 % 1023,2 hPa 0,0 l/m 2,9 km/h (1 Bft) N-NO 22 10,7 C 29,6 C 4,3 km/h (1 Bft)
16.08.2013 15:25 26,1 C 40 % 1023,1 hPa 0,0 l/m 3,2 km/h (1 Bft) NW 315 11,4 C 30,1 C 5,1 km/h (1 Bft)
16.08.2013 15:30 25,9 C 42 % 1023,1 hPa 0,0 l/m 4,2 km/h (1 Bft) W-SW 247 12,0 C 29,3 C 4,3 km/h (1 Bft)
16.08.2013 15:35 26,0 C 40 % 1023,1 hPa 0,0 l/m 4,2 km/h (1 Bft) W-NW 292 11,3 C 28,8 C 5,5 km/h (1 Bft)
16.08.2013 15:40 26,8 C 42 % 1023,1 hPa 0,0 l/m 2,3 km/h (1 Bft) S-SW 202 12,8 C 29,4 C 2,6 km/h (1 Bft)
16.08.2013 15:45 27,1 C 40 % 1022,9 hPa 0,0 l/m 2,3 km/h (1 Bft) W-NW 292 12,3 C 29,8 C 4,5 km/h (1 Bft)
16.08.2013 15:50 26,7 C 39 % 1022,9 hPa 0,0 l/m 3,1 km/h (1 Bft) N 360 11,6 C 30,4 C 3,9 km/h (1 Bft)
16.08.2013 15:55 26,6 C 40 % 1022,9 hPa 0,0 l/m 3,2 km/h (1 Bft) S-SW 202 11,9 C 30,2 C 4,8 km/h (1 Bft)
16.08.2013 16:00 25,0 C 43 % 1022,9 hPa 0,0 l/m 4,0 km/h (1 Bft) S-SW 202 11,5 C 28,8 C 6,0 km/h (2 Bft)
16.08.2013 16:05 25,1 C 44 % 1022,7 hPa 0,0 l/m 4,2 km/h (1 Bft) W-SW 247 12,0 C 27,4 C 4,5 km/h (1 Bft)
16.08.2013 16:10 26,8 C 40 % 1022,7 hPa 0,0 l/m 3,1 km/h (1 Bft) S 180 12,1 C 28,6 C 6,3 km/h (2 Bft)
16.08.2013 16:15 26,9 C 40 % 1022,7 hPa 0,0 l/m 2,1 km/h (1 Bft) W-SW 247 12,1 C 29,8 C 4,8 km/h (1 Bft)
16.08.2013 16:20 26,4 C 39 % 1022,7 hPa 0,0 l/m 3,5 km/h (1 Bft) N 360 11,3 C 30,1 C 6,6 km/h (2 Bft)
16.08.2013 16:25 26,3 C 37 % 1022,6 hPa 0,0 l/m 4,5 km/h (1 Bft) W-NW 292 10,4 C 30,0 C 7,6 km/h (2 Bft)
16.08.2013 16:30 25,5 C 39 % 1022,6 hPa 0,0 l/m 4,7 km/h (1 Bft) W-NW 292 10,5 C 28,9 C 4,0 km/h (1 Bft)
16.08.2013 16:35 26,0 C 38 % 1022,6 hPa 0,0 l/m 3,9 km/h (1 Bft) S 180 10,6 C 29,1 C 4,5 km/h (1 Bft)
16.08.2013 16:40 25,5 C 40 % 1022,6 hPa 0,0 l/m 3,5 km/h (1 Bft) W-SW 247 10,9 C 29,7 C 7,9 km/h (2 Bft)
16.08.2013 16:45 24,7 C 43 % 1022,4 hPa 0,0 l/m 4,7 km/h (1 Bft) S-SO 157 11,3 C 29,4 C 6,8 km/h (2 Bft)
16.08.2013 16:50 24,4 C 44 % 1022,4 hPa 0,0 l/m 4,0 km/h (1 Bft) S-SW 202 11,3 C 28,8 C 4,8 km/h (1 Bft)
16.08.2013 16:55 24,5 C 43 % 1022,4 hPa 0,0 l/m 3,7 km/h (1 Bft) NW 315 11,1 C 28,9 C 8,4 km/h (2 Bft)
16.08.2013 17:00 24,5 C 46 % 1022,4 hPa 0,0 l/m 3,9 km/h (1 Bft) W-SW 247 12,1 C 29,1 C 5,5 km/h (1 Bft)
16.08.2013 17:05 24,3 C 46 % 1022,4 hPa 0,0 l/m 4,7 km/h (1 Bft) S-SO 157 11,9 C 29,5 C 7,2 km/h (2 Bft)
16.08.2013 17:10 24,1 C 45 % 1022,4 hPa 0,0 l/m 4,8 km/h (1 Bft) S-SO 157 11,4 C 29,3 C 2,4 km/h (1 Bft)
16.08.2013 17:15 24,1 C 45 % 1022,4 hPa 0,0 l/m 3,9 km/h (1 Bft) S-SO 157 11,4 C 29,9 C 4,3 km/h (1 Bft)
16.08.2013 17:20 24,2 C 45 % 1022,4 hPa 0,0 l/m 3,4 km/h (1 Bft) N-NW 337 11,5 C 30,3 C 2,6 km/h (1 Bft)
16.08.2013 17:25 24,3 C 46 % 1022,4 hPa 0,0 l/m 3,9 km/h (1 Bft) W 270 11,9 C 30,5 C 8,5 km/h (2 Bft)
16.08.2013 17:30 24,0 C 46 % 1022,4 hPa 0,0 l/m 3,4 km/h (1 Bft) W-NW 292 11,7 C 30,2 C 6,1 km/h (2 Bft)
16.08.2013 17:35 24,0 C 45 % 1022,4 hPa 0,0 l/m 3,9 km/h (1 Bft) W 270 11,3 C 29,9 C 4,2 km/h (1 Bft)
16.08.2013 17:40 23,5 C 46 % 1022,4 hPa 0,0 l/m 3,7 km/h (1 Bft) S-SW 202 11,2 C 28,5 C 2,9 km/h (1 Bft)
16.08.2013 17:45 23,1 C 48 % 1021,9 hPa 0,0 l/m 2,1 km/h (1 Bft) S 180 11,5 C 27,4 C 0,0 km/h (0 Bft)
16.08.2013 17:50 22,9 C 49 % 1021,9 hPa 0,0 l/m 1,0 km/h (0 Bft) O-NO 67 11,6 C 27,5 C 0,0 km/h (0 Bft)
16.08.2013 17:55 23,0 C 50 % 1021,9 hPa 0,0 l/m 1,8 km/h (1 Bft) NO 45 12,0 C 27,7 C 4,5 km/h (1 Bft)
16.08.2013 18:00 22,9 C 51 % 1021,9 hPa 0,0 l/m 3,1 km/h (1 Bft) N-NW 337 12,2 C 28,6 C 6,4 km/h (2 Bft)
16.08.2013 18:05 23,0 C 50 % 1022,2 hPa 0,0 l/m 2,9 km/h (1 Bft) N 360 12,0 C 29,2 C 6,0 km/h (2 Bft)
16.08.2013 18:10 23,1 C 49 % 1022,2 hPa 0,0 l/m 2,6 km/h (1 Bft) NO 45 11,8 C 29,8 C 3,2 km/h (1 Bft)
16.08.2013 18:15 23,1 C 49 % 1022,2 hPa 0,0 l/m 2,7 km/h (1 Bft) NO 45 11,8 C 29,9 C 2,3 km/h (1 Bft)
16.08.2013 18:20 22,9 C 49 % 1022,2 hPa 0,0 l/m 3,1 km/h (1 Bft) W-NW 292 11,6 C 29,8 C 3,9 km/h (1 Bft)
16.08.2013 18:25 22,5 C 51 % 1022,0 hPa 0,0 l/m 3,2 km/h (1 Bft) NO 45 11,8 C 29,6 C 3,5 km/h (1 Bft)
16.08.2013 18:30 22,2 C 52 % 1022,0 hPa 0,0 l/m 2,3 km/h (1 Bft) NO 45 11,9 C 29,6 C 5,0 km/h (1 Bft)
16.08.2013 18:35 21,9 C 54 % 1022,0 hPa 0,0 l/m 1,8 km/h (1 Bft) NO 45 12,2 C 29,8 C 3,1 km/h (1 Bft)
16.08.2013 18:40 21,8 C 54 % 1022,0 hPa 0,0 l/m 1,6 km/h (1 Bft) W-NW 292 12,1 C 29,6 C 0,0 km/h (0 Bft)
16.08.2013 18:45 21,7 C 55 % 1021,2 hPa 0,0 l/m 1,8 km/h (1 Bft) NO 45 12,3 C 29,9 C 3,5 km/h (1 Bft)
16.08.2013 18:50 21,5 C 55 % 1021,2 hPa 0,0 l/m 1,4 km/h (1 Bft) NO 45 12,1 C 29,7 C 2,6 km/h (1 Bft)
16.08.2013 18:55 21,5 C 55 % 1021,2 hPa 0,0 l/m 1,3 km/h (1 Bft) O-SO 112 12,1 C 29,8 C 2,3 km/h (1 Bft)
16.08.2013 19:00 21,4 C 56 % 1021,2 hPa 0,0 l/m 0,5 km/h (0 Bft) O 90 12,3 C 30,0 C 0,0 km/h (0 Bft)
16.08.2013 19:05 21,1 C 56 % 1021,2 hPa 0,0 l/m 0,3 km/h (0 Bft) W-NW 292 12,0 C 30,1 C 0,0 km/h (0 Bft)
16.08.2013 19:10 21,1 C 57 % 1021,2 hPa 0,0 l/m 0,3 km/h (0 Bft) O 90 12,2 C 30,0 C 0,0 km/h (0 Bft)
16.08.2013 19:15 21,1 C 57 % 1021,2 hPa 0,0 l/m 0,5 km/h (0 Bft) NO 45 12,2 C 29,8 C 2,1 km/h (1 Bft)
16.08.2013 19:20 20,9 C 57 % 1021,2 hPa 0,0 l/m 0,5 km/h (0 Bft) NO 45 12,1 C 29,6 C 3,1 km/h (1 Bft)
16.08.2013 19:25 21,1 C 57 % 1021,2 hPa 0,0 l/m 1,0 km/h (0 Bft) W-NW 292 12,2 C 29,1 C 2,4 km/h (1 Bft)
16.08.2013 19:30 21,0 C 57 % 1021,2 hPa 0,0 l/m 1,6 km/h (1 Bft) O 90 12,1 C 28,4 C 2,3 km/h (1 Bft)
16.08.2013 19:35 20,7 C 58 % 1021,2 hPa 0,0 l/m 1,6 km/h (1 Bft) O-NO 67 12,1 C 28,0 C 3,2 km/h (1 Bft)
16.08.2013 19:40 20,8 C 57 % 1021,2 hPa 0,0 l/m 1,9 km/h (1 Bft) O-NO 67 12,0 C 27,1 C 3,4 km/h (1 Bft)
16.08.2013 19:45 20,7 C 57 % 1021,4 hPa 0,0 l/m 2,7 km/h (1 Bft) O 90 11,9 C 26,6 C 3,9 km/h (1 Bft)
16.08.2013 19:50 20,5 C 57 % 1021,4 hPa 0,0 l/m 3,1 km/h (1 Bft) O 90 11,7 C 25,9 C 2,9 km/h (1 Bft)
16.08.2013 19:55 20,3 C 58 % 1021,4 hPa 0,0 l/m 3,1 km/h (1 Bft) O 90 11,8 C 25,3 C 4,2 km/h (1 Bft)
16.08.2013 20:00 19,9 C 60 % 1021,4 hPa 0,0 l/m 2,9 km/h (1 Bft) NO 45 11,9 C 24,7 C 2,4 km/h (1 Bft)
16.08.2013 20:05 19,7 C 61 % 1021,4 hPa 0,0 l/m 2,7 km/h (1 Bft) O 90 12,0 C 24,3 C 3,1 km/h (1 Bft)
16.08.2013 20:10 18,8 C 63 % 1021,4 hPa 0,0 l/m 1,3 km/h (1 Bft) O 90 11,6 C 23,3 C 0,0 km/h (0 Bft)
16.08.2013 20:15 18,8 C 63 % 1021,4 hPa 0,0 l/m 1,3 km/h (1 Bft) O 90 11,6 C 22,7 C 3,1 km/h (1 Bft)
16.08.2013 20:20 18,8 C 65 % 1021,4 hPa 0,0 l/m 2,6 km/h (1 Bft) O 90 12,1 C 21,7 C 3,9 km/h (1 Bft)
16.08.2013 20:25 18,5 C 66 % 1021,5 hPa 0,0 l/m 3,4 km/h (1 Bft) O 90 12,0 C 20,8 C 4,3 km/h (1 Bft)
16.08.2013 20:30 18,2 C 67 % 1021,5 hPa 0,0 l/m 4,7 km/h (1 Bft) O 90 12,0 C 19,2 C 6,8 km/h (2 Bft)
16.08.2013 20:35 17,9 C 68 % 1021,5 hPa 0,0 l/m 5,3 km/h (1 Bft) O 90 11,9 C 18,6 C 5,5 km/h (1 Bft)
16.08.2013 20:40 17,4 C 69 % 1021,5 hPa 0,0 l/m 5,3 km/h (1 Bft) O-SO 112 11,7 C 17,9 C 5,0 km/h (1 Bft)
16.08.2013 20:45 17,1 C 70 % 1021,7 hPa 0,0 l/m 4,5 km/h (1 Bft) O-NO 67 11,6 C 17,4 C 4,3 km/h (1 Bft)
16.08.2013 20:50 16,9 C 71 % 1021,7 hPa 0,0 l/m 4,0 km/h (1 Bft) O 90 11,6 C 16,9 C 4,0 km/h (1 Bft)
16.08.2013 20:55 16,8 C 71 % 1021,7 hPa 0,0 l/m 3,9 km/h (1 Bft) O 90 11,5 C 16,5 C 3,7 km/h (1 Bft)
16.08.2013 21:00 16,5 C 71 % 1021,7 hPa 0,0 l/m 3,1 km/h (1 Bft) O 90 11,2 C 16,2 C 2,3 km/h (1 Bft)
16.08.2013 21:05 16,5 C 70 % 1021,6 hPa 0,0 l/m 2,3 km/h (1 Bft) O-NO 67 11,0 C 16,1 C 2,3 km/h (1 Bft)
16.08.2013 21:10 16,3 C 71 % 1021,6 hPa 0,0 l/m 2,3 km/h (1 Bft) O 90 11,0 C 16,0 C 3,9 km/h (1 Bft)
16.08.2013 21:15 16,2 C 72 % 1021,6 hPa 0,0 l/m 3,1 km/h (1 Bft) O 90 11,1 C 15,9 C 4,2 km/h (1 Bft)
16.08.2013 21:20 16,0 C 73 % 1021,6 hPa 0,0 l/m 3,5 km/h (1 Bft) O 90 11,2 C 15,8 C 3,7 km/h (1 Bft)
16.08.2013 21:25 15,8 C 75 % 1021,6 hPa 0,0 l/m 3,5 km/h (1 Bft) O 90 11,4 C 15,6 C 4,0 km/h (1 Bft)
16.08.2013 21:30 15,3 C 76 % 1021,6 hPa 0,0 l/m 2,9 km/h (1 Bft) O 90 11,1 C 15,4 C 2,6 km/h (1 Bft)
16.08.2013 21:35 15,1 C 76 % 1021,6 hPa 0,0 l/m 2,4 km/h (1 Bft) O 90 10,9 C 15,3 C 3,2 km/h (1 Bft)
16.08.2013 21:40 15,4 C 77 % 1021,6 hPa 0,0 l/m 2,7 km/h (1 Bft) O 90 11,4 C 15,2 C 5,1 km/h (1 Bft)
16.08.2013 21:45 15,5 C 77 % 1021,6 hPa 0,0 l/m 3,4 km/h (1 Bft) O-SO 112 11,5 C 15,2 C 2,3 km/h (1 Bft)
16.08.2013 21:50 14,9 C 77 % 1021,6 hPa 0,0 l/m 2,9 km/h (1 Bft) O 90 10,9 C 15,0 C 3,1 km/h (1 Bft)
16.08.2013 21:55 15,0 C 77 % 1021,6 hPa 0,0 l/m 2,6 km/h (1 Bft) O-SO 112 11,0 C 14,9 C 3,7 km/h (1 Bft)
16.08.2013 22:00 14,9 C 77 % 1021,6 hPa 0,0 l/m 2,6 km/h (1 Bft) O 90 10,9 C 14,9 C 3,4 km/h (1 Bft)
16.08.2013 22:05 14,8 C 76 % 1021,6 hPa 0,0 l/m 1,9 km/h (1 Bft) NO 45 10,6 C 14,8 C 2,1 km/h (1 Bft)
16.08.2013 22:10 14,7 C 76 % 1021,6 hPa 0,0 l/m 1,1 km/h (1 Bft) O-SO 112 10,5 C 14,6 C 2,7 km/h (1 Bft)
16.08.2013 22:15 14,7 C 76 % 1021,6 hPa 0,0 l/m 1,3 km/h (1 Bft) S-SO 157 10,5 C 14,6 C 0,0 km/h (0 Bft)
16.08.2013 22:20 14,6 C 77 % 1021,6 hPa 0,0 l/m 1,1 km/h (1 Bft) O-SO 112 10,6 C 14,6 C 1,9 km/h (1 Bft)
16.08.2013 22:25 14,5 C 77 % 1021,6 hPa 0,0 l/m 0,8 km/h (0 Bft) O 90 10,5 C 14,5 C 0,0 km/h (0 Bft)
16.08.2013 22:30 14,5 C 76 % 1021,6 hPa 0,0 l/m 0,8 km/h (0 Bft) O-NO 67 10,3 C 14,3 C 1,9 km/h (1 Bft)
16.08.2013 22:35 14,3 C 76 % 1021,6 hPa 0,0 l/m 0,6 km/h (0 Bft) O 90 10,1 C 14,2 C 1,9 km/h (1 Bft)
16.08.2013 22:40 14,1 C 76 % 1021,6 hPa 0,0 l/m 0,6 km/h (0 Bft) O 90 9,9 C 14,0 C 1,8 km/h (1 Bft)
16.08.2013 22:45 14,2 C 75 % 1021,4 hPa 0,0 l/m 1,0 km/h (0 Bft) NO 45 9,8 C 14,0 C 1,8 km/h (1 Bft)
16.08.2013 22:50 14,2 C 75 % 1021,4 hPa 0,0 l/m 1,4 km/h (1 Bft) O 90 9,8 C 13,9 C 2,4 km/h (1 Bft)
16.08.2013 22:55 14,3 C 75 % 1021,4 hPa 0,0 l/m 1,6 km/h (1 Bft) NO 45 9,9 C 14,0 C 4,3 km/h (1 Bft)
16.08.2013 23:00 14,2 C 74 % 1021,4 hPa 0,0 l/m 2,4 km/h (1 Bft) O-NO 67 9,6 C 14,1 C 2,9 km/h (1 Bft)
16.08.2013 23:05 14,1 C 74 % 1021,2 hPa 0,0 l/m 2,4 km/h (1 Bft) O-SO 112 9,5 C 14,0 C 5,0 km/h (1 Bft)
16.08.2013 23:10 14,1 C 74 % 1021,2 hPa 0,0 l/m 2,3 km/h (1 Bft) NO 45 9,5 C 13,9 C 1,6 km/h (1 Bft)
16.08.2013 23:15 13,9 C 75 % 1021,2 hPa 0,0 l/m 2,1 km/h (1 Bft) NO 45 9,5 C 13,8 C 2,1 km/h (1 Bft)
16.08.2013 23:20 13,4 C 75 % 1021,2 hPa 0,0 l/m 1,1 km/h (1 Bft) O-NO 67 9,1 C 13,6 C 2,1 km/h (1 Bft)
16.08.2013 23:25 13,3 C 75 % 1021,4 hPa 0,0 l/m 1,0 km/h (0 Bft) O-NO 67 9,0 C 13,4 C 0,0 km/h (0 Bft)
16.08.2013 23:30 13,1 C 75 % 1021,4 hPa 0,0 l/m 1,0 km/h (0 Bft) O-SO 112 8,8 C 13,3 C 1,6 km/h (1 Bft)
16.08.2013 23:35 12,9 C 76 % 1021,4 hPa 0,0 l/m 0,8 km/h (0 Bft) O 90 8,8 C 13,1 C 0,0 km/h (0 Bft)
16.08.2013 23:40 12,7 C 76 % 1021,4 hPa 0,0 l/m 0,2 km/h (0 Bft) NO 45 8,6 C 12,9 C 0,0 km/h (0 Bft)
16.08.2013 23:45 12,7 C 76 % 1021,6 hPa 0,0 l/m 0,0 km/h (0 Bft) O-NO 67 8,6 C 12,7 C 0,0 km/h (0 Bft)
16.08.2013 23:50 12,5 C 75 % 1021,6 hPa 0,0 l/m 0,0 km/h (0 Bft) N-NO 22 8,2 C 12,4 C 0,0 km/h (0 Bft)
16.08.2013 23:55 12,8 C 76 % 1021,6 hPa 0,0 l/m 0,2 km/h (0 Bft) N 360 8,7 C 12,4 C 1,8 km/h (1 Bft)
_ Min-Zeit 06:20 16:25 23:20 - 23:50 - - 06:20 06:25 23:50
Minimum _ 7,2 C 37 % 1021,2 hPa - 0,0 km/h (0 Bft) - - 5,7 C 7,0 C 0,0 km/h (0 Bft)
_ Max-Zeit 15:45 07:45 00:35 23:55 14:20 - - 08:10 17:25 14:05
Maximum _ 27,1 C 91 % 1024,1 hPa 0,0 l/m 5,5 km/h
N-NW (1 Bft)
- - 15,8 C 30,5 C 10,6 km/h
O-NO (2 Bft)
Durchschnitt _ 17,5 C 66 % 1022,8 hPa #0,0 l/m 1,6 km/h (1 Bft) O - 10,0 C 19,2 C 2,1 km/h (1 Bft)